Stanley, ID

11:51 PM MDT on June 28, 2017 (GMT -0600)
Stanley

Weather History for KSNT - November, 2012

Change the Weather History Date:

Saturday, November 3, 2012

  Actual Average Record
Temperature  
Mean Temperature 35 °F 30 °F  
Max Temperature 49 °F 43 °F 62 °F (1921)
Min Temperature 21 °F 18 °F -11 °F (1991)
Degree Days  
Heating Degree Days 30 35  
Month to date heating degree days 83 102  
Since 1 July heating degree days 1670 1966  
Cooling Degree Days 0 0  
Month to date cooling degree days 0 0  
Year to date cooling degree days 3 3  
Moisture  
Dew Point 27 °F    
Average Humidity 71    
Maximum Humidity 96    
Minimum Humidity 46    
Precipitation  
Precipitation 0.00 in 0.09 in 1.01 in (1984)
Month to date precipitation 0.09 0.28  
Year to date precipitation 18.14 13.96  
Sea Level Pressure  
Sea Level Pressure 30.21 in    
Wind  
Wind Speed 1 mph (South)    
Max Wind Speed 6 mph    
Max Gust Speed 8 mph    
T = Trace of Precipitation, MM = Missing Value Source: NWS Daily Summary

Daily Weather History Graph

Daily Weather History Graph

Search for Another Location

Airport or City:

Trip Planner

Search our weather history database for the weather conditions in past years. The results will help you decide how hot, cold, wet, or windy it might be!

Date:

Astronomy

Nov. 03, 2012 Rise Set
Actual Time 8:20 AM MDT 6:25 PM MDT
Civil Twilight 7:49 AM MDT 6:56 PM MDT
Nautical Twilight 7:15 AM MDT 7:30 PM MDT
Astronomical Twilight 6:41 AM MDT 8:04 PM MDT
Moon 10:07 PM MDT (11/3) 12:30 PM MDT (11/3)
Length of Visible Light 11h 06m
Length of Day
10h 05m
Waning Gibbous, 80% of the Moon is Illuminated
Nov 3
Waning Gibbous
Nov 6
Last Quarter
Nov 13
New
Nov 20
First Quarter
Nov 28
Full

Hourly Weather History & Observations

Time (MDT) Temp. Windchill Dew Point Humidity Pressure Visibility Wind Dir Wind Speed Gust Speed Precip Events Conditions
12:51 AM 27.0 °F 23.0 °F 25.0 °F 92% 30.17 in - South 3.5 mph - N/A   Unknown
1:51 AM 26.1 °F - 23.0 °F 88% 30.18 in - Calm Calm - N/A   Unknown
2:51 AM 24.1 °F - 21.9 °F 91% 30.15 in - Calm Calm - N/A   Unknown
3:51 AM 24.1 °F - 21.9 °F 91% 30.15 in - Calm Calm - N/A   Unknown
4:51 AM 24.1 °F - 21.9 °F 91% 30.15 in - Calm Calm - N/A   Unknown
5:51 AM 23.0 °F - 21.9 °F 96% 30.19 in - Calm Calm - N/A   Unknown
6:51 AM 24.1 °F - 21.9 °F 91% 30.22 in - Calm Calm - N/A   Unknown
7:51 AM 24.1 °F - 23.0 °F 96% 30.22 in - Calm Calm - N/A   Unknown
8:51 AM 24.1 °F - 21.9 °F 91% 30.27 in - Calm Calm - N/A   Unknown
9:51 AM 26.1 °F - 25.0 °F 96% 30.27 in - Calm Calm - N/A   Unknown
10:51 AM 30.0 °F - 28.0 °F 92% 30.26 in - Calm Calm - N/A   Unknown
11:51 AM 32.0 °F - 28.9 °F 88% 30.26 in - Calm Calm - N/A   Unknown
12:51 PM 39.0 °F - 28.0 °F 65% 30.22 in - Calm Calm - N/A   Unknown
1:51 PM 45.0 °F 43.5 °F 28.9 °F 53% 30.17 in - Variable 3.5 mph - N/A   Unknown
2:51 PM 46.0 °F - 28.0 °F 50% 30.17 in - Calm Calm - N/A   Unknown
3:51 PM 48.9 °F - 28.0 °F 44% 30.16 in - NNW 3.5 mph - N/A   Unknown
4:51 PM 48.9 °F - 30.9 °F 50% 30.17 in - Calm Calm - N/A   Unknown
5:51 PM 46.9 °F - 32.0 °F 56% 30.19 in - Calm Calm - N/A   Unknown
6:51 PM 41.0 °F - 34.0 °F 76% 30.22 in - Calm Calm - N/A   Unknown
7:51 PM 39.9 °F - 33.1 °F 77% 30.25 in - Calm Calm - N/A   Unknown
8:51 PM 39.9 °F 37.8 °F 32.0 °F 73% 30.25 in - SW 3.5 mph - N/A   Unknown
9:51 PM 36.0 °F - 30.9 °F 82% 30.26 in - Calm Calm - N/A   Unknown
10:51 PM 33.1 °F 28.7 °F 30.0 °F 89% 30.27 in - SSE 4.6 mph - N/A   Unknown
11:51 PM 30.9 °F 27.5 °F 28.9 °F 92% 30.26 in - SE 3.5 mph - N/A   Unknown